User: anonymous   Login
Location: Albany
(35.0000°S, 118.0000°E)
Time: 20:22:16
(UTC-04:00)
Language:

Cosmos 1933 - Orbit

View from above orbital plane
View from above orbital plane
View from above satellite
View from above satellite

Ground track
Ground track

The orbit data is extracted from the following two-line orbital elements,

1 18958U 88020A   16146.95769573 +.00000219 +00000-0 +14165-4 0  9991
2 18958 082.5285 117.4012 0012482 152.1621 208.0275 15.02905954512196
Epoch (UTC): 25 May 2016 22:59:04
Eccentricity: 0.0012482
inclination: 82.5285°
perigee height: 549 km
apogee height: 566 km
right ascension of ascending node: 117.4012°
argument of perigee: 152.1621°
revolutions per day: 15.02905954
mean anomaly at epoch: 208.0275°
orbit number at epoch: 51219

The dashed part of the orbit path shows where the satellite is in the earth's shadow,  

DLR